This is the latest recevied weather packets stored in our database for station/object OK0BH-6. If no packets are shown the sender has not sent any weather packets the latest 10 day(s).
| Time | Temp. | Humidity | Pressure | Rain* | Wind** | Luminosity | Snow |
|---|---|---|---|---|---|---|---|
| 1788101032 | 32.22° C | 35% | 1016.7 hPa | - | - | - | - |
| 1788100457 | 31.67° C | 35% | 1016.8 hPa | - | - | - | - |
| 1788099882 | 31.67° C | 35% | 1016.9 hPa | - | - | - | - |
| 1788099308 | 32.22° C | 35% | 1016.8 hPa | - | - | - | - |
| 1788098733 | 32.22° C | 35% | 1016.8 hPa | - | - | - | - |
| 1788098158 | 32.22° C | 35% | 1016.8 hPa | - | - | - | - |
| 1788097583 | 32.22° C | 36% | 1017 hPa | - | - | - | - |
| 1788097008 | 31.67° C | 36% | 1017 hPa | - | - | - | - |
| 1788096433 | 31.67° C | 36% | 1017 hPa | - | - | - | - |
| 1788095858 | 31.11° C | 36% | 1017.3 hPa | - | - | - | - |
| 1788095283 | 31.11° C | 36% | 1017.4 hPa | - | - | - | - |
| 1788094708 | 30.56° C | 36% | 1017.4 hPa | - | - | - | - |
| 1788094134 | 30.56° C | 37% | 1017.6 hPa | - | - | - | - |
| 1788093559 | 30° C | 37% | 1017.6 hPa | - | - | - | - |
| 1788092984 | 30° C | 37% | 1017.6 hPa | - | - | - | - |
| 1788092409 | 30° C | 38% | 1017.7 hPa | - | - | - | - |
| 1788091834 | 29.44° C | 38% | 1017.7 hPa | - | - | - | - |
| 1788091259 | 28.89° C | 37% | 1017.8 hPa | - | - | - | - |
| 1788090684 | 28.89° C | 38% | 1017.8 hPa | - | - | - | - |
| 1788090109 | 27.78° C | 39% | 1017.9 hPa | - | - | - | - |
| 1788089535 | 27.78° C | 39% | 1018 hPa | - | - | - | - |
| 1788088960 | 27.22° C | 39% | 1018.1 hPa | - | - | - | - |
| 1788088385 | 27.22° C | 39% | 1018.1 hPa | - | - | - | - |
| 1788087810 | 26.67° C | 40% | 1018.2 hPa | - | - | - | - |
| 1788087235 | 26.67° C | 40% | 1018.3 hPa | - | - | - | - |
* Rain since midnight (hover to see other rain measurements)
** Current wind speed in m/s (hover to see current wind gust speed)